Tracking 19164 objects as of 20-May-2018
HD Live streaming from Space Station
objects crossing your sky now

SAUDICOMSAT 3

Track SAUDICOMSAT 3 now!
10-day predictions
SAUDICOMSAT 3 is classified as:


NORAD ID: 31125
Int'l Code: 2007-012J
Perigee: 653.1 km
Apogee: 714.8 km
Inclination: 97.9 °
Period: 98.3 minutes
Semi major axis: 7054 km
RCS: 0.082 m2 (small)
Launch date: April 17, 2007
Source: Saudi Arabia (SAUD)
Launch site: TYURATAM MISSILE AND SPACE COMPLEX (TTMTR)
aabbcc
Your satellite tracking list
Your tracking list is empty




NASA's NSSDC Master Catalog

Two Line Element Set (TLE):
1 31125U 07012J   18139.85061881  .00000090  00000-0  25321-4 0  9997
2 31125  97.9189 104.0881 0043734  13.1887 347.0449 14.65087623592445
Source of the keplerian elements: AFSPC